Regional Weather Roundup
Issued by NWS

Home | Current Version | Previous Version | Text Only | Print | Product List | Glossary Off
Versions: 1 2 3 4 5 6 7 8 9 10 11 12 13 14 15 16 17 18 19 20 21 22 23 24 25 26 27 28 29 30 31 32 33 34 35 36 37 38 39 40 41 42 43 44 45 46 47 48 49 50

000
ASUS43 KIND 160109
RWRIN

WEATHER ROUNDUP FOR INDIANA
NATIONAL WEATHER SERVICE INDIANAPOLIS IN
900 PM EDT TUE AUG 15 2017

NOTE: "FAIR" INDICATES FEW OR NO CLOUDS BELOW 12,000 FEET WITH NO
SIGNIFICANT WEATHER AND/OR OBSTRUCTIONS TO VISIBILITY.

* - STATION DOES NOT REPORT WEATHER SUCH AS PRECIPITATION OR FOG.

+ - STATION NOT QUALITY CONTROLLED BY THE NATIONAL WEATHER SERVICE.
    USE DATA WITH CAUTION...ESPECIALLY DEWPOINT AND RELATIVE
    HUMIDITY OBSERVATIONS.

INZ001>003-010>013-019-020-160200-
NORTHWEST INDIANA

CITY           SKY/WX    TMP DP  RH WIND       PRES   REMARKS
GARY /AIRPORT/ MOCLDY    72  64  78 NE9       29.95S
KNOX *+        CLEAR     70  64  83 N5        29.94R
LA PORTE +     CLOUDY    69  65  85 N3        29.95S
MICHIGAN CITY+ CLOUDY    68  64  88 NE3       29.95S
MONTICELLO +   CLEAR     76  67  75 CALM      29.92R
RENSSELAER +   CLEAR     73  63  68 NE6       29.93R
VALPARAISO     LGT RAIN  72  68  87 N5        29.95R

$$

LMZ046-743>745-160200-
SOUTHERN LAKE MICHIGAN

STATION/POSITION TIME  TEMP    WIND        PRES    WAVE
                       AIR SEA DIR/SP/G            HT
                 (UTC) (F)     (DEG/KT/KT) (MB)    (FT)
BURNS HARBOR     0101   72      50/ 12/ 16 1014.6
MICHIGAN CITY    0040   71      30/ 14/ 16   N/A
5NW MICH CITY    0100   72 74   50/ 12/ 16   N/A     3

$$

INZ004-005-014>016-021>024-160200-
NORTH CENTRAL INDIANA

CITY           SKY/WX    TMP DP  RH WIND       PRES   REMARKS
ELKHART        CLOUDY    75  64  69 N6        29.95R
GOSHEN         CLEAR     75  63  66 N5        29.94R
LOGANSPORT +   CLEAR     73  64  73 CALM      29.94R
PERU/GRISSOM   CLEAR     76  69  79 NE3       29.92R
ROCHESTER +    CLEAR     77  66  69 CALM      29.94R
SOUTH BEND     CLOUDY    70  67  90 N8        29.95S
WARSAW +       CLEAR     73  64  73 CALM      29.94R

$$

INZ006>009-017-018-025>027-160200-
NORTHEAST INDIANA

CITY           SKY/WX    TMP DP  RH WIND       PRES   REMARKS
AUBURN +       CLEAR     73  63  68 CALM      29.95R
FORT WAYNE     PTCLDY    77  64  64 NW6       29.93S
HUNTINGTON +   CLEAR     73  67  81 CALM      29.93R
KENDALLVILLE + CLEAR     71  67  88 CALM      29.95S

$$

INZ028-029-035-036-043>045-051>053-160200-
WEST CENTRAL INDIANA

CITY           SKY/WX    TMP DP  RH WIND       PRES   REMARKS
GREENCASTLE +  CLEAR     75  68  78 CALM      29.93R
LAFAYETTE      MOCLDY    77  69  76 N5        29.91R
TERRE HAUTE    CLEAR     75  70  84 CALM      29.91R

$$

INZ030>032-037>040-046>048-054>057-064-065-160200-
CENTRAL INDIANA

CITY           SKY/WX    TMP DP  RH WIND       PRES   REMARKS
CP ATTERBURY + CLEAR     73  70  88 CALM      29.93R
COLUMBUS       PTCLDY    79  66  65 CALM      29.93R
FRANKFORT +    CLOUDY    76  71  85 CALM      29.95R
INDIANAPOLIS   PTCLDY    80  66  62 NW6       29.92R
-EAGLE CREEK   CLEAR     80  69  69 CALM      29.92R
KOKOMO +       CLEAR     76  70  82 N5        29.94R
MARION +       CLEAR     73  68  83 N5        29.94S
MT COMFORT *+  PTCLDY    79  68  69 NE5       29.93R
SHELBYVILLE    CLEAR     79  68  69 S5        29.92R
ZIONSVILLE +   CLEAR     71  69  92 N3        29.94R

$$

INZ033-034-041-042-049-050-058-059-160200-
EAST CENTRAL INDIANA

CITY           SKY/WX    TMP DP  RH WIND       PRES   REMARKS
MUNCIE         CLEAR     74  70  87 CALM      29.94R
RICHMOND +     CLEAR     72  68  88 CALM      29.96R

$$

INZ060-061-067>069-081>083-085>088-160200-
SOUTHWEST INDIANA

CITY           SKY/WX    TMP DP  RH WIND       PRES   REMARKS
EVANSVILLE     PTCLDY    80  71  74 CALM      29.91R
HUNTINGBURG *+ PTCLDY    77  74  90 CALM      29.92R
WASHINGTON +   PTCLDY    75  71  85 MISG      29.91R

$$

INZ062-063-066-070>080-084-089>092-160200-
SOUTH CENTRAL AND SOUTHEAST INDIANA

CITY           SKY/WX    TMP DP  RH WIND       PRES   REMARKS
BEDFORD +      CLOUDY    77  68  73 CALM      29.92
BLOOMINGTON    CLEAR     74  68  81 CALM      29.93R
MADISON *+     CLOUDY    77  72  83 CALM      29.95R
NORTH VERNON + CLOUDY    75  70  83 CALM      29.94R
SEYMOUR +      PTCLDY    79  72  78 CALM      29.92R

$$





USA.gov is the U.S. government's official web portal to all federal, state and local government web resources and services.